Date,TemperatureHighF,TemperatureAvgF,TemperatureLowF,DewpointHighF,DewpointAvgF,DewpointLowF,HumidityHigh,HumidityAvg,HumidityLow,PressureMaxIn,PressureMinIn,WindSpeedMaxMPH,WindSpeedAvgMPH,GustSpeedMaxMPH,PrecipitationSumIn
2012-1-1,8,0,-4,5,-3,-8,97,86,83,29.94,29.21,6,2,9,0.00
2012-1-2,4,1,-3,1,-3,-100,88,86,84,29.66,29.20,6,2,8,0.00
2012-1-3,5,0,-3,2,-4,-100,87,85,84,29.66,29.32,4,1,5,0.00
2012-1-4,11,4,-2,8,0,-100,89,87,85,29.51,29.20,1,0,2,0.00
2012-1-5,16,6,-2,14,4,-5,91,88,84,29.54,29.42,6,1,8,0.04
2012-1-6,16,8,2,14,4,-1,91,82,71,29.63,29.52,11,3,15,0.00
2012-1-7,16,8,2,14,5,-1,91,87,84,29.52,28.82,14,6,21,0.02
2012-1-8,21,14,8,19,12,3,93,88,77,29.74,28.89,14,5,22,0.07
2012-1-9,12,6,2,9,2,-3,90,84,78,30.24,29.74,12,4,16,0.00
2012-1-10,22,14,6,20,11,1,90,87,80,30.07,29.45,24,9,32,0.00
2012-1-11,35,29,20,31,26,17,93,87,81,29.52,29.43,10,4,16,0.00
2012-1-12,29,16,10,27,13,7,93,90,86,29.95,29.47,19,8,23,0.11
2012-1-13,12,10,4,8,4,-1,90,77,60,30.55,29.95,15,6,21,0.00
2012-1-14,8,0,-7,5,-4,-11,90,84,79,30.82,30.57,6,2,9,0.00
2012-1-15,4,-2,-6,2,-5,-10,90,85,81,30.84,30.80,3,1,6,0.00
2012-1-16,8,0,-5,5,-4,-100,89,85,83,30.80,30.63,2,0,4,0.00
2012-1-17,7,1,-5,5,-4,-100,90,85,83,30.63,30.46,5,1,6,0.00
2012-1-18,8,1,-6,5,-4,-100,88,86,82,30.47,30.10,4,1,5,0.00
2012-1-19,8,0,-5,6,-4,-100,91,86,83,30.09,29.62,4,0,5,0.00
2012-1-20,10,4,-4,7,0,-8,89,87,83,29.61,28.96,2,0,5,0.00
2012-1-21,12,7,2,9,2,-100,89,85,64,28.96,28.64,23,2,26,0.00
2012-1-22,15,12,9,12,6,0,90,76,62,28.95,28.63,19,9,26,0.00
2012-1-23,21,14,9,16,8,-100,91,79,68,29.03,28.92,12,6,19,0.00
2012-1-24,13,8,1,11,3,-3,90,80,73,28.96,28.75,11,5,16,0.00
2012-1-25,8,3,-1,6,-1,-100,90,85,81,29.35,28.77,10,5,14,0.00
2012-1-26,5,0,-7,2,-5,-100,90,85,81,29.89,29.34,8,2,10,0.00
2012-1-27,3,-2,-7,0,-6,-100,89,84,82,30.06,29.88,5,2,7,0.00
2012-1-28,1,-3,-7,-2,-7,-11,87,84,82,30.02,29.59,4,1,6,0.00
2012-1-29,5,-1,-7,2,-4,-11,88,85,83,29.61,29.31,3,0,4,0.00
2012-1-30,14,8,-1,12,5,-5,91,88,85,29.31,29.23,4,0,4,0.00
2012-1-31,19,16,11,18,13,-100,92,91,89,29.45,29.23,0,0,0,0.01
2012-2-1,42,23,14,33,20,11,96,90,59,29.42,28.57,22,6,34,0.04
2012-2-2,42,36,30,33,29,23,92,76,46,29.22,28.66,24,4,31,0.01
2012-2-3,29,22,17,26,20,15,93,92,85,29.80,28.96,11,5,21,0.24
2012-2-4,22,17,12,21,15,10,95,91,89,30.23,29.81,9,4,11,0.00
2012-2-5,28,20,14,25,17,11,93,86,75,30.12,29.84,10,4,16,0.00
2012-2-6,33,27,23,27,22,-100,93,83,76,30.11,29.98,10,3,12,0.00
2012-2-7,29,24,19,26,21,16,95,87,78,29.98,29.64,6,3,8,0.00
2012-2-8,39,27,20,34,22,16,92,82,72,29.64,29.41,13,5,20,0.00
2012-2-9,44,35,29,34,27,23,86,74,55,29.78,29.46,14,4,25,0.00
2012-2-10,36,32,29,30,26,23,88,80,71,29.60,29.42,11,4,16,0.00
2012-2-11,36,33,31,31,27,-100,88,83,78,29.48,29.17,14,5,21,0.00
2012-2-12,39,34,31,33,28,-100,89,81,70,29.42,29.19,19,5,23,0.00
2012-2-13,35,32,30,33,28,-100,96,88,82,29.49,29.27,19,4,24,0.11
2012-2-14,34,31,28,31,26,23,96,83,70,29.86,29.50,13,3,14,0.15
2012-2-15,32,29,26,28,25,23,90,85,80,29.81,29.46,13,4,18,0.00
2012-2-16,32,28,24,28,24,-100,92,87,82,29.64,29.53,14,4,21,0.00
2012-2-17,36,30,26,30,26,23,91,84,69,29.76,29.61,8,2,12,0.00
2012-2-18,30,25,21,24,18,-100,93,84,76,29.74,29.55,9,3,12,0.00
2012-2-19,29,24,17,23,18,14,92,79,68,29.61,29.33,9,3,11,0.00
2012-2-20,34,29,25,27,20,-100,84,70,62,29.33,28.77,19,6,19,0.00
2012-2-21,34,31,28,30,26,22,94,83,71,29.51,28.98,8,3,16,0.00
2012-2-22,36,31,29,27,23,-100,86,73,64,30.04,29.53,13,3,16,0.00
2012-2-23,29,26,23,25,21,18,92,82,71,30.20,30.04,8,2,12,0.00
2012-2-24,23,20,18,21,15,-100,93,84,71,30.29,30.21,10,4,11,0.01
2012-2-25,22,18,11,19,14,7,94,86,76,30.28,30.02,14,5,15,0.00
2012-2-26,27,22,17,25,18,-100,93,90,87,30.02,29.27,13,7,18,0.00
2012-2-27,31,28,22,29,25,17,94,89,70,29.42,29.25,18,3,23,0.06
2012-2-28,22,18,15,17,14,10,88,81,74,29.66,29.43,11,4,18,0.00
2012-2-29,23,18,12,19,13,-100,92,85,71,29.65,29.59,9,3,10,0.07
2012-3-1,25,18,11,20,12,-100,93,82,75,29.63,29.33,11,5,14,0.00
2012-3-2,28,24,20,23,19,14,91,82,70,29.50,29.32,6,2,10,0.00
2012-3-3,26,24,17,24,22,14,94,91,82,29.72,29.51,11,3,14,0.01
2012-3-4,26,17,10,19,7,-100,83,69,59,30.13,29.71,13,4,18,0.00
2012-3-5,18,13,8,16,10,2,93,87,75,30.14,29.81,7,3,11,0.00
2012-3-6,28,21,15,25,16,-100,95,86,76,29.88,29.81,9,-20,12,0.10
2012-3-7,27,22,18,22,18,15,92,83,70,29.96,29.88,9,5,11,0.00
2012-3-8,23,15,10,18,10,-100,93,83,63,29.88,29.10,7,3,10,0.00
2012-3-9,24,18,11,21,11,-100,95,78,57,29.39,29.07,8,2,13,0.00
2012-3-10,22,17,13,14,7,-100,89,71,50,29.40,29.30,15,5,21,0.00
2012-3-11,22,17,12,10,5,2,74,60,48,29.50,29.31,12,4,14,0.00
2012-3-12,22,14,5,13,5,-1,90,68,54,29.54,29.12,9,3,12,0.00
2012-3-13,26,17,8,15,8,-100,91,73,58,29.11,29.04,14,5,16,0.00
2012-3-14,31,27,23,27,21,13,93,80,65,29.10,29.03,13,3,18,0.07
2012-3-15,36,28,23,27,21,17,91,75,54,29.10,29.05,7,2,12,0.00
2012-3-16,31,24,16,23,17,13,92,76,52,29.40,29.09,7,2,10,0.00
2012-3-17,31,22,15,19,14,-100,94,73,52,29.64,29.41,7,3,9,0.00
2012-3-18,29,22,14,21,16,11,92,79,60,29.65,29.60,8,2,9,0.00
2012-3-19,32,24,17,23,18,13,91,79,58,29.62,29.57,9,2,11,0.00
2012-3-20,28,21,16,21,14,8,92,73,57,29.61,29.46,9,3,11,0.00
2012-3-21,26,18,9,15,7,-100,87,66,52,29.84,29.51,8,3,10,0.00
2012-3-22,26,20,12,15,9,5,83,63,48,30.11,29.84,8,3,9,0.00
2012-3-23,27,19,11,21,13,6,89,76,59,30.11,29.93,13,5,15,0.00
2012-3-24,37,28,22,29,23,19,92,82,65,29.96,29.88,11,6,13,0.00
2012-3-25,33,27,17,27,20,14,91,75,58,29.88,29.71,8,3,10,0.00
2012-3-26,37,26,18,23,16,-100,89,69,48,29.71,29.58,10,4,16,0.00
2012-3-27,37,30,25,28,19,-100,79,68,56,29.59,29.26,9,4,12,0.00
2012-3-28,44,35,30,31,24,-100,80,69,52,29.26,29.05,14,4,20,0.00
2012-3-29,47,40,33,33,28,26,81,64,49,29.07,29.00,7,2,11,0.00
2012-3-30,45,37,28,33,29,26,91,73,57,29.38,29.03,7,2,10,0.00
2012-3-31,43,38,34,35,32,30,89,78,68,29.61,29.39,16,4,16,0.00
2012-4-1,41,36,34,35,31,-100,94,87,72,29.66,29.61,7,2,9,0.00
2012-4-2,38,34,28,33,26,-100,93,78,60,29.64,29.43,6,1,12,0.00
2012-4-3,38,33,24,25,19,-100,80,60,47,29.78,29.48,9,3,12,0.00
2012-4-4,42,33,26,31,23,-100,84,69,50,30.00,29.76,18,4,23,0.00
2012-4-5,46,38,34,32,29,-100,87,73,52,30.04,29.97,13,5,22,0.00
2012-4-6,41,36,33,34,32,30,96,85,67,30.26,29.98,20,5,27,0.07
2012-4-7,35,33,32,33,32,31,95,94,90,30.42,30.26,12,2,18,0.23
2012-4-8,42,34,27,33,28,22,95,79,47,30.45,30.22,8,3,9,0.00
2012-4-9,44,34,26,30,26,22,89,74,56,30.23,30.03,11,2,12,0.00
2012-4-10,44,34,27,31,23,-100,88,69,42,30.02,29.80,12,4,14,0.00
2012-4-11,46,38,30,30,24,20,86,59,36,29.84,29.81,9,4,11,0.00
2012-4-12,47,37,31,30,25,-100,86,67,48,29.89,29.84,6,2,9,0.00
2012-4-13,50,41,34,31,28,26,77,60,42,29.95,29.87,9,3,10,0.00
2012-4-14,49,41,32,35,31,27,81,68,47,29.88,29.72,9,3,13,0.00
2012-4-15,50,42,36,36,32,-100,90,73,49,29.79,29.71,10,2,22,0.00
2012-4-16,48,42,35,37,33,-100,88,74,65,29.78,29.70,6,2,11,0.00
2012-4-17,49,44,38,38,36,34,87,75,62,29.81,29.71,7,2,9,0.00
2012-4-18,44,41,38,37,35,34,89,78,71,29.83,29.80,12,3,16,0.00
2012-6-1,59,48,50,42,23,-100,66,49,41,29.70,0.00,11,-101,14,0.00
2012-6-2,62,54,47,49,40,-100,76,65,52,29.87,29.69,14,4,19,0.00
2012-6-3,54,50,47,46,40,-100,91,75,65,30.10,29.88,15,3,19,0.08
2012-6-4,54,48,45,45,43,41,95,82,69,30.11,30.02,12,4,18,0.01
2012-6-5,62,52,44,50,43,-100,90,74,59,30.03,29.85,10,4,13,0.00
2012-6-6,58,51,47,49,42,-100,85,76,55,30.02,29.85,11,3,28,0.00
2012-6-7,60,52,47,49,43,-100,93,78,65,30.04,29.76,11,3,14,0.00
2012-6-8,61,54,51,49,41,-100,80,66,52,29.96,29.70,16,-6,29,0.00
2012-6-9,58,54,51,46,43,41,76,66,55,30.07,29.97,12,4,16,0.00
2012-6-10,61,53,46,46,43,41,85,72,58,30.00,29.84,10,2,12,0.00
2012-6-11,60,55,50,50,44,-100,83,70,55,29.89,29.83,10,3,19,0.02
2012-6-12,51,49,47,49,46,43,95,88,79,29.90,29.86,7,2,10,0.22
2012-6-13,53,49,47,48,44,-100,96,86,76,29.95,29.89,11,4,13,0.12
2012-6-14,59,52,47,46,43,39,89,71,51,29.98,29.91,10,3,14,0.12
2012-6-15,60,54,49,46,42,38,82,66,53,29.93,29.48,11,4,12,0.00
2012-6-16,66,56,46,50,42,-100,82,63,43,29.46,29.29,10,2,14,0.00
2012-6-17,69,60,52,52,47,42,81,62,44,29.83,29.43,21,5,30,0.03
2012-6-18,71,61,56,55,50,48,78,69,55,29.95,29.80,14,4,18,0.03
2012-6-19,65,58,54,54,48,-100,81,73,59,30.01,29.95,12,5,15,0.00
2012-6-20,60,55,53,53,47,-100,89,82,75,30.11,30.01,13,6,18,0.00
2012-6-21,72,60,53,57,52,48,88,75,58,30.11,29.98,9,3,12,0.00
2012-6-22,73,64,56,57,52,-100,85,69,54,30.04,29.93,10,4,13,0.00
2012-6-23,71,63,57,56,53,51,86,69,53,29.97,29.75,11,5,19,0.00
2012-6-24,58,56,53,53,51,49,91,85,79,29.75,29.60,18,6,24,0.01
2012-6-25,56,52,51,52,49,-100,95,90,79,29.68,29.51,11,4,13,0.04
2012-6-26,60,54,50,51,48,45,94,80,59,29.62,29.50,15,4,21,0.02
2012-6-27,60,55,48,48,44,-100,85,71,58,29.79,29.62,9,2,20,0.02
2012-6-28,56,52,49,50,47,45,95,83,72,29.85,29.78,10,3,13,0.07
2012-6-29,63,56,51,50,49,47,90,76,60,29.85,29.77,11,3,14,0.00
2012-6-30,64,58,51,51,49,47,87,73,58,29.80,29.69,13,5,18,0.00
2012-7-1,60,56,53,50,48,46,86,75,61,29.86,29.73,14,5,20,0.00
2012-7-2,58,55,53,50,44,-100,81,73,66,29.87,29.81,12,-8,13,0.00
2012-7-3,58,53,49,50,44,-100,88,74,57,29.82,29.76,10,4,24,0.00
2012-7-4,56,52,48,49,45,-100,94,79,67,29.85,29.79,8,4,22,0.03
2012-7-5,57,53,50,48,45,43,87,76,64,29.86,29.81,8,2,13,0.03
2012-7-6,62,55,48,48,46,44,88,73,59,29.91,29.85,8,1,11,0.00
2012-7-7,59,56,53,51,47,42,83,73,62,29.96,29.84,15,3,20,0.00
2012-7-8,59,54,49,43,41,40,72,63,52,30.05,29.96,16,5,26,0.00
2012-7-9,63,54,47,48,41,-100,86,65,45,30.05,29.79,12,3,19,0.10
2012-7-10,59,53,46,48,43,-100,89,72,56,29.96,29.76,10,3,18,0.10
2012-7-11,57,54,50,46,41,-100,79,65,53,29.98,29.88,11,4,18,0.00
2012-7-12,54,52,50,51,48,46,95,86,78,29.94,29.86,11,4,15,0.09
2012-7-13,61,54,50,51,49,48,95,84,65,30.18,29.94,8,2,15,0.09
2012-7-14,61,55,51,51,48,-100,94,81,65,30.25,30.11,12,4,14,0.03
2012-7-15,56,52,50,51,48,-100,95,89,78,30.13,29.96,12,4,21,0.14
2012-7-16,60,54,49,51,48,46,100,81,62,30.25,30.14,13,4,15,0.01
2012-7-17,70,58,53,53,50,47,86,73,55,30.21,29.97,10,3,13,0.01
2012-7-18,74,62,52,57,51,-100,88,71,57,29.98,29.91,10,3,11,0.00
2012-7-19,70,62,56,56,52,49,85,72,58,30.00,29.88,12,4,13,0.00
2012-7-20,64,58,54,55,51,-100,90,79,66,29.91,29.84,15,4,20,0.00
2012-7-21,60,58,55,57,54,-100,97,91,82,29.90,29.83,13,6,14,0.38
2012-7-22,61,57,54,56,47,-100,97,82,65,30.05,29.88,14,-7,21,0.06
2012-7-23,58,56,53,54,51,48,90,83,71,30.18,30.05,9,3,21,0.00
2012-7-24,62,57,52,52,48,-100,88,78,67,30.24,30.17,10,3,12,0.00
2012-7-25,66,58,52,54,51,48,90,78,63,30.26,30.08,10,3,14,0.00
2012-7-26,68,59,51,56,50,-100,91,76,60,30.10,29.91,10,4,12,0.00
2012-7-27,70,61,54,56,53,49,87,75,52,29.95,29.85,12,3,15,0.00
2012-7-28,71,63,54,55,52,49,87,68,53,29.99,29.88,18,4,24,0.00
2012-7-29,65,62,58,50,46,-100,70,60,50,29.99,29.84,22,6,27,0.00
2012-7-30,60,56,52,52,50,45,94,81,59,29.90,29.82,13,3,20,0.16
2012-7-31,68,58,52,52,50,46,92,74,54,29.93,29.83,10,3,14,0.16
2012-8-1,59,56,53,54,52,50,95,89,78,29.84,29.63,13,6,19,0.10
2012-8-2,58,54,50,54,49,46,97,85,67,29.95,29.64,9,3,21,0.08
2012-8-3,60,55,50,50,48,45,91,77,61,30.14,29.95,16,4,20,0.09
2012-8-4,56,55,53,51,49,46,87,80,75,30.13,29.93,12,4,14,0.00
2012-8-5,63,56,51,53,49,46,95,80,55,29.94,29.87,10,3,14,0.00
2012-8-6,66,58,51,54,50,46,92,76,60,29.91,29.83,10,2,14,0.00
2012-8-7,66,59,50,52,46,-100,92,67,47,29.96,29.88,19,4,26,0.00
2012-8-8,66,58,51,56,51,48,92,80,62,29.93,29.83,11,2,13,0.00
2012-8-9,70,61,55,56,51,-100,89,74,58,30.05,29.86,10,2,22,0.00
2012-8-10,66,60,56,54,52,50,87,76,60,30.13,30.06,8,4,13,0.00
2012-8-11,67,59,55,56,51,-100,89,78,66,30.12,30.04,9,4,11,0.00
2012-8-12,66,60,55,57,53,50,90,77,65,30.07,29.95,11,4,20,0.00
2012-8-13,65,60,56,54,52,50,89,76,61,30.11,30.01,13,5,22,0.00
2012-8-14,72,61,53,57,53,49,92,78,50,30.14,30.04,10,3,13,0.00
2012-8-15,68,62,56,55,51,47,83,67,54,30.11,30.05,12,3,23,0.00
2012-8-16,63,57,53,54,51,49,94,81,63,30.07,29.98,12,3,26,0.00
2012-8-17,64,58,53,52,50,46,90,76,57,29.98,29.85,12,4,15,0.00
2012-8-18,61,55,49,52,49,46,90,80,63,29.90,29.85,13,2,19,0.00
2012-8-19,63,56,53,53,44,-100,95,73,54,29.88,29.82,20,-5,32,0.01
2012-8-20,57,54,52,53,51,48,95,89,74,29.97,29.81,11,4,16,0.06
2012-8-21,64,55,49,53,49,-100,95,84,62,30.08,29.97,12,3,14,0.06
2012-8-22,65,57,50,54,50,47,91,79,64,30.04,29.74,9,3,12,0.00
2012-8-23,57,54,50,55,50,48,94,86,78,29.86,29.69,12,4,16,0.25
2012-8-24,61,54,46,51,48,-100,94,83,67,29.97,29.86,12,2,24,0.01
2012-8-25,61,55,50,52,48,-100,93,80,67,30.05,29.97,9,3,15,0.01
2012-8-26,66,57,51,56,52,48,93,83,66,30.03,29.63,16,4,26,0.04
2012-8-27,65,59,54,56,49,37,94,71,38,29.96,29.63,22,7,35,0.05
2012-8-28,66,56,49,47,41,-100,80,61,36,30.09,29.96,12,5,18,0.00
2012-8-29,65,54,45,47,43,40,88,67,47,30.08,29.93,8,2,10,0.00
2012-8-30,59,56,53,53,49,42,92,79,65,29.94,29.75,21,4,25,0.13
2012-8-31,54,52,49,50,46,-100,91,85,75,29.80,29.62,9,5,14,0.06
2012-9-1,55,50,47,50,48,46,96,93,82,29.69,29.53,9,4,14,0.09
2012-9-2,57,52,49,51,45,39,94,80,50,29.76,29.63,22,6,27,0.02
2012-9-3,60,51,47,51,46,-100,95,86,66,29.76,29.50,16,6,27,0.03
2012-9-4,57,52,49,48,40,-100,90,69,54,29.92,29.60,30,-14,39,0.04
2012-9-5,58,51,50,47,33,-100,90,66,58,29.85,0.00,18,-31,33,0.04
2012-9-6,53,51,49,41,39,38,69,65,61,30.09,29.86,13,5,33,0.00
2012-9-19,60,50,45,51,41,-100,96,86,71,29.61,29.45,30,10,30,0.15
2012-9-20,54,52,48,52,50,46,96,93,84,29.71,29.62,12,4,18,0.33
2012-9-21,57,52,46,52,49,45,96,90,79,29.84,29.58,18,4,23,0.63
2012-9-22,65,56,50,51,48,42,95,75,48,29.57,29.35,24,7,39,0.01
2012-9-23,54,50,48,50,47,44,94,87,75,29.75,29.38,15,3,23,0.14
2012-9-24,51,49,46,46,44,38,93,83,66,29.96,29.75,11,3,20,0.00
2012-9-25,50,46,44,46,43,41,95,88,71,29.86,29.26,9,3,13,0.00
2012-9-26,53,49,45,42,40,37,86,74,56,29.40,28.81,11,5,19,0.00
2012-9-27,48,45,42,41,39,-100,90,82,75,29.05,28.80,8,2,14,0.00
2012-9-28,44,41,34,42,39,33,94,91,84,29.48,29.04,11,2,19,0.12
2012-9-29,44,37,33,34,30,-100,95,79,55,29.89,29.48,10,4,13,0.18
2012-9-30,46,38,33,34,31,27,93,77,50,30.09,29.90,9,4,13,0.00
2012-10-1,47,38,32,36,27,-100,87,70,50,30.38,30.09,7,3,10,0.00
2012-10-2,46,41,38,39,32,-100,88,75,59,30.38,30.22,12,4,18,0.00
2012-10-3,46,43,40,43,40,37,95,88,76,30.27,30.05,12,5,21,0.23
2012-10-4,60,47,42,48,39,-100,94,84,60,30.14,29.97,11,6,26,0.23
2012-10-5,52,48,46,48,44,-100,97,91,81,30.24,30.10,19,4,28,0.19
2012-10-6,50,47,46,47,43,-100,96,90,84,30.30,30.13,11,4,19,0.36
2012-10-7,49,45,44,48,40,-100,97,94,92,30.32,30.25,8,3,9,0.09
2012-10-8,53,49,46,49,46,44,97,90,81,30.26,30.16,9,3,14,0.00
2012-10-9,50,47,45,46,43,-100,98,92,82,30.18,30.10,9,4,11,0.01
2012-10-10,50,46,41,45,42,31,96,85,67,30.10,29.94,11,5,15,0.00
2012-10-11,46,40,36,31,28,25,78,63,48,29.94,29.55,10,4,14,0.00
2012-10-12,42,35,29,31,25,-100,88,71,52,29.54,29.12,6,2,10,0.00
2012-10-13,37,33,31,33,25,18,94,74,54,29.23,29.10,14,7,22,0.02
2012-10-14,42,36,32,36,30,-100,92,84,75,29.21,28.93,15,6,18,0.02
2012-10-15,38,34,31,35,30,-100,95,88,68,29.10,28.93,18,6,20,0.04
2012-10-16,33,30,26,28,17,-100,88,69,56,29.55,29.10,14,-14,19,0.00
2012-10-17,37,32,27,30,23,-100,90,74,59,29.74,29.55,11,6,18,0.00
2012-10-18,35,29,22,25,19,17,81,68,53,29.83,29.69,8,2,12,0.00
2012-10-19,37,29,21,24,19,-100,86,69,51,30.08,29.84,20,3,26,0.00
2012-10-20,40,33,22,20,17,14,74,54,36,30.29,30.08,23,8,31,0.00
2012-10-21,36,30,24,21,14,-100,73,55,35,30.35,30.28,13,3,29,0.00
2012-10-22,32,24,18,21,14,11,81,66,46,30.29,30.25,9,2,12,0.00
2012-10-23,32,23,17,21,13,-100,84,71,47,30.28,30.23,6,1,8,0.00
2012-10-24,38,26,17,23,17,11,84,72,44,30.43,30.27,7,2,10,0.00
2012-10-25,35,27,21,22,17,14,87,65,47,30.54,30.43,9,3,11,0.00
2012-10-26,31,25,19,21,17,13,89,72,56,30.48,30.20,9,2,10,0.00
2012-10-27,33,23,16,22,17,11,88,77,59,30.21,30.00,7,2,8,0.00
2012-10-28,35,25,18,27,19,13,91,78,65,30.02,29.99,7,2,9,0.00
2012-10-29,35,27,20,28,22,16,88,81,68,30.01,29.80,9,2,12,0.00
2012-10-30,32,28,24,27,16,-100,92,66,45,29.81,29.54,26,10,31,0.03
2012-10-31,30,24,19,16,10,-100,78,58,46,29.67,29.49,30,6,32,0.00
2012-11-1,28,25,21,15,11,9,69,56,49,29.86,29.68,19,10,24,0.00
2012-11-2,35,30,24,22,14,10,71,53,41,29.67,29.24,21,8,24,0.00
2012-11-3,31,28,25,22,19,17,80,70,58,29.37,29.34,15,6,18,0.00
2012-11-4,30,25,20,22,17,-100,88,73,60,29.46,29.33,8,4,12,0.00
2012-11-5,26,21,14,18,8,-100,82,66,51,29.79,29.46,13,4,21,0.00
2012-11-6,26,23,16,15,10,8,76,59,52,30.18,29.79,12,4,16,0.00
2012-11-7,25,17,11,19,11,5,92,77,67,30.40,30.18,5,1,9,0.00
2012-11-8,26,20,12,17,12,-100,93,77,59,30.40,30.20,11,4,13,0.00
2012-11-9,30,27,23,28,23,12,92,86,55,30.20,29.77,12,5,15,0.04
2012-11-10,35,31,29,33,28,-100,95,90,85,29.77,29.57,9,4,10,0.00
2012-11-11,36,31,27,34,29,25,96,91,80,29.80,29.58,6,2,7,0.00
2012-11-12,34,30,25,32,28,23,95,92,89,30.06,29.80,5,1,7,0.00
2012-11-13,28,24,22,27,23,20,96,94,91,30.08,29.91,7,3,10,0.00